Hourly Data Report for October 11, 2014

All times are specified in Local Standard Time (LST). Add 1 hour to adjust for Daylight Saving Time where and when it is observed.

CLYDE RIVER A
NUNAVUT

70°29'09.000" N
68°31'01.000" W
26.50 m
2400804
71090
YCY

Download Data

Hourly Data (October 2014)
Hourly Data Report for October 11, 2014
Temp Definition
°C
Dew Point Temp Definition
°C
Rel Hum Definition
%
Wind Dir Definition
10's deg

Wind Spd Definition
km/h
Visibility Definition
km
Stn Press Definition
kPa
Hmdx Definition


Wind Chill Definition


Weather Definition


TIME
00:00 Legend Double Dagger 1.0 0.9 99 11 30 3.6 99.98     Fog
01:00 Legend Double Dagger 1.1 1.0 99 11 35 2.0 99.95     Fog
02:00 Legend Double Dagger 1.1 1.0 99 11 26 4.0 99.93     Rain,Fog
03:00 Legend Double Dagger 1.1 0.8 98 11 32 4.8 99.93     Rain,Fog
04:00 Legend Double Dagger 1.1 0.7 97 10 32 6.4 99.94     Rain,Fog
05:00 Legend Double Dagger 1.3 0.9 97 11 34 8.1 99.93     Rain,Fog
06:00 Legend Double Dagger 1.5 1.1 97 11 37 8.1 99.92     Rain,Fog
07:00 Legend Double Dagger 1.3 0.9 97 11 35 8.1 99.93     Rain,Fog
08:00 Legend Double Dagger 1.4 1.0 97 11 37 6.4 99.95     Rain,Fog
09:00 Legend Double Dagger 1.5 1.2 98 11 35 4.0 99.93     Rain,Fog
10:00 Legend Double Dagger 1.4 1.1 98 11 32 4.8 99.93     Rain,Fog
11:00 Legend Double Dagger 1.4 1.1 98 12 32 4.8 99.91     Rain,Fog
12:00 Legend Double Dagger 1.1 1.0 99 11 22 1.6 99.92     Fog
13:00 Legend Double Dagger 1.1 1.0 99 12 24 2.4 99.93     Fog
14:00 Legend Double Dagger 1.1 1.0 99 13 15 6.4 99.98     Fog
15:00 Legend Double Dagger 1.0 0.9 99 15 15 9.7 100.01     Fog
16:00 Legend Double Dagger 0.8 0.7 99 13 15 8.1 100.04     Fog
17:00 Legend Double Dagger 0.6 0.5 99 13 22 8.1 100.12     Fog
18:00 Legend Double Dagger 0.6 0.2 97 23 13 16.1 100.11     LegendNANA
19:00 Legend Double Dagger 1.1 -0.2 91 15 11 16.1 100.13     LegendNANA
20:00 Legend Double Dagger 0.5 0.2 98 8 8 2.4 100.15     Fog
21:00 Legend Double Dagger 0.8 0.7 99 13 13 4.8 100.18     Fog
22:00 Legend Double Dagger 0.6 0.5 99   0 1.2 100.14     Fog
23:00 Legend Double Dagger 0.5 0.4 99 LegendMM 4 0.6 100.10     Fog

Notes on Data Quality.

Legend

  • E = Estimated
  • M = Missing
  • NA = Not Available
  • ‡ = Partner data that is not subject to review by the National Climate Archives
Date modified: